Weather History for KMZZ - November, 2011

Change the Weather History Date:

Friday, November 18, 2011

  Actual Average (KMIE) Record (KMIE)
Temperature  
Mean Temperature 35 °F 42 °F  
Max Temperature 45 °F 50 °F 72 °F (1971)
Min Temperature 25 °F 33 °F 9 °F (2014)
Degree Days  
Heating Degree Days 30 23  
Month to date heating degree days 354  
Since 1 July heating degree days 818  
Cooling Degree Days 0 0  
Month to date cooling degree days 0  
Year to date cooling degree days 955  
Moisture  
Dew Point 9 °F    
Average Humidity 36    
Maximum Humidity 61    
Minimum Humidity 16    
Precipitation  
Precipitation 0.00 in 0.13 in 0.86 in (1969)
Month to date precipitation 2.04  
Year to date precipitation 35.83  
Sea Level Pressure  
Sea Level Pressure 30.21 in    
Wind  
Wind Speed 11 mph (SSW)    
Max Wind Speed 24 mph    
Max Gust Speed 33 mph    
Visibility 10 miles    
Events      
T = Trace of Precipitation, MM = Missing Value Source: NWS Daily Summary

Daily Weather History Graph

Daily Weather History Graph

Search for Another Location

Airport or City:

Trip Planner

Search our weather history database for the weather conditions in past years. The results will help you decide how hot, cold, wet, or windy it might be!

Date:

Astronomy

Nov. 18, 2011 Rise Set
Actual Time 7:32 AM EST 5:23 PM EST
Civil Twilight 7:02 AM EST 5:52 PM EST
Nautical Twilight 6:29 AM EST 6:25 PM EST
Astronomical Twilight 5:57 AM EST 6:58 PM EST
Moon No Moon Rise 1:10 PM EST (11/18)
Length of Visible Light 10h 49m
Length of Day
9h 50m
Waning Gibbous, 49% of the Moon is Illuminated
Nov 18
Waning Gibbous
Nov 25
New
Dec 2
First Quarter
Dec 10
Full
Dec 17
Last Quarter

Hourly Weather History & Observations

Time (EST) Temp. Windchill Dew Point Humidity Pressure Visibility Wind Dir Wind Speed Gust Speed Precip Events Conditions
12:15 AM 26.6 °F 22.6 °F 14.0 °F 59% 30.28 in 10.0 mi SSW 3.5 mph - N/A   Clear
12:35 AM 26.2 °F 20.7 °F 13.3 °F 58% 30.28 in 10.0 mi South 4.6 mph - N/A   Clear
12:55 AM 25.9 °F 20.3 °F 13.8 °F 60% 30.28 in 10.0 mi South 4.6 mph - N/A   Clear
1:15 AM 25.7 °F 20.1 °F 13.6 °F 60% 30.28 in 10.0 mi South 4.6 mph - N/A   Clear
1:35 AM 25.3 °F 19.7 °F 13.6 °F 61% 30.28 in 10.0 mi South 4.6 mph - N/A   Clear
1:55 AM 25.7 °F 19.0 °F 14.0 °F 61% 30.28 in 10.0 mi South 5.8 mph - N/A   Clear
2:15 AM 26.6 °F 20.0 °F 13.3 °F 57% 30.28 in 10.0 mi SSW 5.8 mph - N/A   Clear
2:55 AM 26.6 °F 19.1 °F 13.6 °F 58% 30.29 in 10.0 mi SSW 6.9 mph - N/A   Clear
3:15 AM 26.6 °F 17.5 °F 14.0 °F 59% 30.29 in 10.0 mi SSW 9.2 mph - N/A   Clear
3:35 AM 27.0 °F 19.5 °F 14.0 °F 58% 30.30 in 10.0 mi SSW 6.9 mph - N/A   Clear
3:55 AM 26.6 °F 18.2 °F 13.8 °F 59% 30.30 in 10.0 mi SSW 8.1 mph - N/A   Clear
4:15 AM 26.8 °F 17.7 °F 13.8 °F 58% 30.30 in 10.0 mi SSW 9.2 mph - N/A   Clear
4:35 AM 27.3 °F 19.1 °F 13.6 °F 56% 30.30 in 10.0 mi SSW 8.1 mph - N/A   Clear
4:55 AM 27.3 °F 18.4 °F 13.5 °F 56% 30.30 in 10.0 mi SSW 9.2 mph - N/A   Clear
5:15 AM 27.9 °F 19.8 °F 13.1 °F 54% 30.30 in 10.0 mi SSW 8.1 mph - N/A   Clear
5:35 AM 27.3 °F 19.1 °F 13.3 °F 56% 30.31 in 10.0 mi SSW 8.1 mph - N/A   Clear
6:15 AM 27.5 °F 19.3 °F 12.2 °F 53% 30.31 in 10.0 mi South 8.1 mph - N/A   Clear
6:35 AM 27.5 °F 18.6 °F 12.7 °F 54% 30.31 in 10.0 mi South 9.2 mph - N/A   Clear
6:55 AM 27.9 °F 19.1 °F 12.9 °F 54% 30.31 in 10.0 mi South 9.2 mph - N/A   Clear
7:15 AM 28.2 °F 19.5 °F 12.6 °F 52% 30.30 in 10.0 mi South 9.2 mph - N/A   Clear
7:35 AM 28.4 °F 19.1 °F 12.4 °F 51% 30.31 in 10.0 mi South 10.4 mph - N/A   Clear
7:55 AM 28.9 °F 20.4 °F 11.8 °F 49% 30.31 in 10.0 mi South 9.2 mph - N/A   Clear
8:15 AM 29.1 °F 20.0 °F 11.8 °F 49% 30.31 in 10.0 mi South 10.4 mph - N/A   Clear
8:35 AM 29.8 °F 20.9 °F 12.2 °F 48% 30.31 in 10.0 mi South 10.4 mph - N/A   Clear
8:55 AM 30.9 °F 21.7 °F 12.9 °F 47% 30.31 in 10.0 mi SSW 11.5 mph 16.1 mph N/A   Clear
9:15 AM 32.0 °F 23.0 °F 13.5 °F 46% 30.31 in 10.0 mi SSW 11.5 mph - N/A   Clear
9:35 AM 32.5 °F 22.7 °F 13.6 °F 46% 30.31 in 10.0 mi SSW 13.8 mph - N/A   Clear
10:15 AM 35.1 °F 23.8 °F 12.0 °F 39% 30.30 in 10.0 mi SSW 20.7 mph 25.3 mph N/A   Clear
10:35 AM 36.1 °F 25.9 °F 11.1 °F 36% 30.30 in 10.0 mi SSW 18.4 mph - N/A   Clear
10:55 AM 37.8 °F 28.6 °F 10.6 °F 33% 30.29 in 10.0 mi SSW 16.1 mph 20.7 mph N/A   Clear
11:15 AM 39.4 °F 29.8 °F 8.8 °F 28% 30.29 in 10.0 mi SSW 19.6 mph 28.8 mph N/A   Clear
11:35 AM 40.3 °F 31.6 °F 7.0 °F 25% 30.28 in 10.0 mi SSW 17.3 mph - N/A   Mostly Cloudy
11:55 AM 41.4 °F 32.1 °F 5.0 °F 22% 30.27 in 10.0 mi SSW 20.7 mph 31.1 mph N/A   Overcast
12:15 PM 41.9 °F 32.1 °F 1.9 °F 19% 30.25 in 10.0 mi SSW 24.2 mph 33.4 mph N/A   Mostly Cloudy
12:35 PM 42.8 °F 33.8 °F 1.2 °F 18% 30.24 in 10.0 mi SSW 21.9 mph 29.9 mph N/A   Mostly Cloudy
12:55 PM 43.7 °F 35.2 °F 2.3 °F 18% 30.22 in 10.0 mi SSW 20.7 mph 28.8 mph N/A   Scattered Clouds
1:15 PM 44.4 °F 35.5 °F 1.4 °F 17% 30.21 in 10.0 mi SSW 24.2 mph 28.8 mph N/A   Clear
1:35 PM 44.8 °F 36.4 °F 1.0 °F 16% 30.20 in 10.0 mi South 21.9 mph 26.5 mph N/A   Clear
1:55 PM 44.2 °F 35.9 °F 2.5 °F 18% 30.19 in 10.0 mi SSW 20.7 mph 31.1 mph N/A   Clear
2:15 PM 44.1 °F 36.5 °F 2.8 °F 18% 30.17 in 10.0 mi SSW 17.3 mph 33.4 mph N/A   Clear
2:35 PM 45.3 °F 37.8 °F 4.3 °F 19% 30.16 in 10.0 mi South 18.4 mph 25.3 mph N/A   Clear
2:55 PM 45.3 °F 37.6 °F 3.6 °F 18% 30.14 in 10.0 mi South 19.6 mph 29.9 mph N/A   Clear
3:15 PM 45.5 °F 38.3 °F 3.6 °F 18% 30.13 in 10.0 mi South 17.3 mph 25.3 mph N/A   Clear
3:35 PM 45.7 °F 38.8 °F 4.3 °F 18% 30.12 in 10.0 mi South 16.1 mph 29.9 mph N/A   Clear
3:55 PM 45.7 °F 38.6 °F 4.6 °F 19% 30.11 in 10.0 mi South 17.3 mph 28.8 mph N/A   Clear
4:15 PM 45.1 °F 36.9 °F 4.3 °F 19% 30.11 in 10.0 mi South 21.9 mph 28.8 mph N/A   Clear
4:35 PM 45.0 °F 36.9 °F 3.6 °F 18% 30.11 in 10.0 mi South 20.7 mph 28.8 mph N/A   Clear
4:55 PM 44.4 °F 37.2 °F 3.4 °F 18% 30.11 in 10.0 mi South 16.1 mph 23.0 mph N/A   Scattered Clouds
5:15 PM 43.5 °F 35.8 °F 5.2 °F 21% 30.10 in 10.0 mi South 17.3 mph 23.0 mph N/A   Mostly Cloudy
5:35 PM 43.5 °F 35.8 °F 5.4 °F 21% 30.09 in 10.0 mi South 17.3 mph 24.2 mph N/A   Overcast
5:55 PM 43.7 °F 36.0 °F 5.4 °F 21% 30.08 in 10.0 mi South 17.3 mph 24.2 mph N/A   Overcast
6:15 PM 43.5 °F 35.8 °F 5.7 °F 21% 30.08 in 10.0 mi South 17.3 mph 24.2 mph N/A   Overcast
6:35 PM 42.8 °F 34.8 °F 6.1 °F 22% 30.08 in 10.0 mi South 17.3 mph 24.2 mph N/A   Scattered Clouds
6:55 PM 42.1 °F 34.5 °F 6.4 °F 23% 30.08 in 10.0 mi South 15.0 mph 23.0 mph N/A   Clear
7:15 PM 42.1 °F 33.6 °F 6.6 °F 23% 30.08 in 10.0 mi South 18.4 mph 23.0 mph N/A   Scattered Clouds
7:35 PM 41.9 °F 33.4 °F 7.0 °F 24% 30.08 in 10.0 mi South 18.4 mph 24.2 mph N/A   Clear
7:55 PM 42.1 °F 33.9 °F 7.0 °F 24% 30.07 in 10.0 mi South 17.3 mph 26.5 mph N/A   Scattered Clouds
8:15 PM 42.3 °F 33.3 °F 7.9 °F 24% 30.06 in 10.0 mi South 20.7 mph 27.6 mph N/A   Overcast
8:35 PM 42.1 °F 33.1 °F 8.1 °F 25% 30.06 in 10.0 mi South 20.7 mph 27.6 mph N/A   Mostly Cloudy
8:55 PM 41.7 °F 32.9 °F 8.4 °F 25% 30.06 in 10.0 mi South 19.6 mph 26.5 mph N/A   Scattered Clouds
9:15 PM 41.4 °F 32.1 °F 9.5 °F 27% 30.05 in 10.0 mi South 20.7 mph 25.3 mph N/A   Mostly Cloudy
9:35 PM 41.0 °F 32.2 °F 10.0 °F 28% 30.05 in 10.0 mi South 18.4 mph 25.3 mph N/A   Mostly Cloudy
9:55 PM 41.0 °F 32.2 °F 10.4 °F 29% 30.05 in 10.0 mi South 18.4 mph 25.3 mph N/A   Scattered Clouds
10:15 PM 41.0 °F 31.9 °F 9.9 °F 28% 30.05 in 10.0 mi South 19.6 mph 23.0 mph N/A   Scattered Clouds
10:35 PM 41.0 °F 31.9 °F 9.7 °F 28% 30.04 in 10.0 mi South 19.6 mph 27.6 mph N/A   Mostly Cloudy
10:55 PM 41.0 °F 31.6 °F 10.6 °F 29% 30.04 in 10.0 mi South 20.7 mph 26.5 mph N/A   Overcast
11:15 PM 40.8 °F 32.0 °F 11.1 °F 30% 30.04 in 10.0 mi South 18.4 mph 27.6 mph N/A   Overcast
11:35 PM 41.0 °F 32.8 °F 11.5 °F 30% 30.04 in 10.0 mi South 16.1 mph 23.0 mph N/A   Overcast
11:55 PM 41.2 °F 32.4 °F 11.1 °F 29% 30.04 in 10.0 mi South 18.4 mph 24.2 mph N/A   Overcast